Location: ?
(35.6144°N, 139.6873°E)
Time: 01:27:50
(UTC+00:00)

Envisat - Visible Passes

Search period start: 14 July 2024 00:00
Search period end: 24 July 2024 00:00
Orbit: 762 x 764 km, 98.3° (Epoch: 13 July)

Date Brightness Start Highest point End Pass type
(mag) Time Alt. Az. Time Alt. Az. Time Alt. Az.
14 Jul 4.3 17:15:35 10° NNE 17:20:12 35° E 17:23:13 19° SSE visible
14 Jul 4.3 18:54:58 10° NNW 18:58:56 23° WNW 19:02:53 10° WSW visible
15 Jul 5.4 16:39:50 10° ENE 16:42:34 14° E 16:45:17 10° SE visible
15 Jul 3.2 18:16:52 10° N 18:21:48 54° WNW 18:25:30 17° SW visible
16 Jul 3.3 17:39:26 10° NNE 17:44:28 63° E 17:47:37 23° S visible
17 Jul 4.7 17:02:45 10° NE 17:06:57 26° E 17:09:44 17° SE visible
17 Jul 3.9 18:41:27 10° N 18:45:52 31° WNW 18:49:52 12° SW visible
18 Jul 5.7 16:28:45 10° E 16:29:14 10° E 16:29:44 10° E visible
18 Jul 2.9 18:03:36 10° N 18:08:40 74° WNW 18:12:00 22° SSW visible
19 Jul 3.8 17:26:24 10° NNE 17:31:16 46° E 17:34:07 23° SSE visible
19 Jul 4.6 19:06:26 10° NNW 19:09:50 18° WNW 19:13:14 10° WSW visible
20 Jul 5.1 16:50:06 10° NE 16:53:41 19° E 16:56:14 14° SE visible
20 Jul 3.5 18:28:01 10° N 18:32:45 41° WNW 18:36:23 16° SW visible
21 Jul 3.0 17:50:24 10° NNE 17:55:30 82° ESE 17:58:30 25° S visible
22 Jul 4.3 17:13:27 10° NNE 17:18:02 34° E 17:20:36 21° SE visible
22 Jul 4.3 18:52:45 10° NNW 18:56:47 24° WNW 19:00:45 10° WSW visible
23 Jul 5.4 16:37:47 10° ENE 16:40:23 14° E 16:42:43 11° ESE visible
23 Jul 3.1 18:14:40 10° N 18:19:38 56° WNW 18:22:51 21° SW visible
